Location: ??
(35.5052°N, 139.7262°E)
Time: 17:28:32
(UTC+00:00)

USA 229 - Pass Details

Date: 20 June 2021
Orbit: 956 x 1256 km, 63.5° (Epoch: 25 July)

Event Time Altitude Azimuth Distance (km) Brightness Sun altitude
Exits shadow 14:41:45 79° 41° (NE) 1,016 3.5 -31.1°
Drops below altitude 10° 14:47:59 10° 32° (NNE) 2,850 6.6 -31.0°
Sets 14:50:42 0° 32° (NNE) 3,849 7.5 -31.0°
